Location: Unspecified
(0.0000°N, 0.0000°E)
Time: 22:40:52
(UTC+00:00)

Hubble Space Telescope - Pass Details

Date: 21 July 2019
Orbit: 536 x 540 km, 28.5° (Epoch: 22 July)

Event Time Altitude Azimuth Distance (km) Brightness Sun altitude
Exits shadow 04:54:54 22° 296° (WNW) 1,178 2.1 -16.7°
Maximum altitude 04:56:21 28° 331° (NNW) 1,018 2.1 -16.4°
Drops below altitude 10° 04:59:54 10° 31° (NNE) 1,776 4.2 -15.6°
Sets 05:02:23 0° 43° (NE) 2,664 5.5 -15.0°
